Location: Betra
(48.4113°N, 8.6634°E)
Time: 15:26:46
(UTC+00:00)

Cosmos 1850 Rocket - Pass Details

Date: 15 August 2024
Orbit: 751 x 783 km, 74.0° (Epoch: 17 September)

Event Time Altitude Azimuth Distance (km) Brightness Sun altitude
Rises 19:03:03 0° 336° (NNW) 3,263 8.2 -4.5°
Reaches altitude 10° 19:05:26 10° 336° (NNW) 2,336 7.4 -4.8°
Maximum altitude 19:10:46 85° 249° (WSW) 790 4.2 -5.6°
Drops below altitude 10° 19:16:05 10° 161° (SSE) 2,333 6.1 -6.4°
Sets 19:18:27 0° 161° (SSE) 3,258 6.8 -6.7°
